Location: Newark
(41.6500°N, 71.4833°W)
Time: 00:07:46
(UTC+00:00)

Courier 1B - Pass Details

Date: 27 January 2020
Orbit: 962 x 1209 km, 28.3° (Epoch: 20 February)

Event Time Altitude Azimuth Distance (km) Brightness Sun altitude
Rises 05:04:18 0° 200° (SSW) 3,727 - -66.9°
Reaches altitude 10° 05:09:55 10° 163° (SSE) 2,850 - -66.8°
Maximum altitude 05:11:08 11° 152° (SSE) 2,830 - -66.8°
Drops below altitude 10° 05:12:22 10° 142° (SE) 2,884 - -66.8°
Sets 05:18:14 0° 106° (ESE) 3,924 - -66.6°
